Abha, Saudi Arabia

7:50 AM +03 on September 18, 2019 (GMT +0300)
Abha

Weather History for OEAB - May, 2019

Change the Weather History Date:

Monday, May 13, 2019

  Actual Average Record
Temperature  
Mean Temperature 74 °F -  
Max Temperature 82 °F 82 °F 87 °F (2002)
Min Temperature 66 °F 59 °F 50 °F (1999)
Cooling Degree Days 9    
Growing Degree Days 24 (Base 50)    
Moisture  
Dew Point 45 °F    
Average Humidity 38    
Maximum Humidity 56    
Minimum Humidity 14    
Precipitation  
Precipitation 0.00 in - - ()
Sea Level Pressure  
Sea Level Pressure 30.23 in    
Wind  
Wind Speed 5 mph ()    
Max Wind Speed 14 mph    
Max Gust Speed -    
Visibility 4.4 miles    
Events Thunderstorm    
Averages and records for this station are not official NWS values.
T = Trace of Precipitation, MM = Missing Value Source: Averaged Metar Reports

Daily Weather History Graph

Daily Weather History Graph

Search for Another Location

Airport or City:

Astronomy

May. 13, 2019 Rise Set
Actual Time 5:37 AM +03 6:34 PM +03
Civil Twilight 5:13 AM +03 6:57 PM +03
Nautical Twilight 4:46 AM +03 7:25 PM +03
Astronomical Twilight 4:18 AM +03 7:53 PM +03
Moon 1:26 PM +03 (5/13) 1:32 AM +03 (5/13)
Length of Visible Light 13h 44m
Length of Day
12h 57m
Waxing Gibbous, 65% of the Moon is Illuminated
May 13
Waxing Gibbous
May 19
Full
May 26
Last Quarter
Jun 3
New
Jun 10
First Quarter

Hourly Weather History & Observations

Time (+03) Temp. Dew Point Humidity Pressure Visibility Wind Dir Wind Speed Gust Speed Precip Events Conditions
12:00 AM 68.0 °F 41.0 °F 37% 30.27 in - ENE 5.8 mph - N/A   Clear
1:00 AM 66.2 °F 39.2 °F 37% 30.24 in - ENE 5.8 mph - N/A   Clear
2:00 AM 66.2 °F 42.8 °F 43% 30.24 in - ENE 4.6 mph - N/A   Clear
3:00 AM 66.2 °F 41.0 °F 40% 30.21 in - Calm Calm - N/A   Clear
5:00 AM 66.2 °F 41.0 °F 40% 30.24 in 5.6 mi Calm Calm - N/A   Clear
6:00 AM 66.2 °F 41.0 °F 40% 30.24 in 2.5 mi Calm Calm - N/A   Haze
7:00 AM 68.0 °F 41.0 °F 37% 30.24 in 2.5 mi Calm Calm - N/A   Haze
8:00 AM 73.4 °F 39.2 °F 29% 30.27 in 2.5 mi Calm Calm - N/A   Haze
10:00 AM 77.0 °F 39.2 °F 26% 30.27 in 3.1 mi ENE 4.6 mph - N/A   Unknown
11:00 AM 82.4 °F 39.2 °F 21% 30.24 in 3.1 mi South 8.1 mph - N/A   Unknown
12:00 PM 80 °F 39 °F 14%  in 4 mi South 9.2 mph - -   Widespread Dust
1:00 PM 80.6 °F 39.2 °F 23% 30.21 in 3.7 mi SSW 10.4 mph - N/A   Partly Cloudy
2:00 PM 80.6 °F 44.6 °F 28% 30.21 in 3.7 mi SSE 11.5 mph - N/A   Scattered Clouds
3:00 PM 77.0 °F 50.0 °F 39% 30.21 in 4.3 mi SW 13.8 mph - N/A Thunderstorm Thunderstorm
4:00 PM 75.2 °F 51.8 °F 44% 30.21 in 5.0 mi SW 11.5 mph - N/A   Partly Cloudy
5:00 PM 77.0 °F 50.0 °F 39% 30.18 in 5.0 mi SW 10.4 mph - N/A   Scattered Clouds
6:00 PM 73.4 °F 51.8 °F 47% 30.18 in 5.0 mi SSW 9.2 mph - N/A   Scattered Clouds
7:00 PM 71.6 °F 53.6 °F 53% 30.21 in 5.0 mi SSW 9.2 mph - N/A   Partly Cloudy
8:00 PM 69.8 °F 53.6 °F 56% 30.24 in 6.2 mi South 6.9 mph - N/A   Partly Cloudy
9:00 PM 69.8 °F 53.6 °F 56% 30.24 in 6.2 mi South 4.6 mph - N/A   Partly Cloudy
10:00 PM 68.0 °F 48.2 °F 49% 30.24 in 6.2 mi SSW 4.6 mph - N/A   Partly Cloudy
11:00 PM 69.8 °F 41.0 °F 35% 30.27 in 6.2 mi SSW 4.6 mph - N/A   Partly Cloudy